Regional Weather Roundup
Issued by NWS

Home | Current Version | Previous Version | Text Only | Print | Product List | Glossary Off
Versions: 1 2 3 4 5 6 7 8 9 10 11 12 13 14 15 16 17 18 19 20 21 22 23 24 25 26 27 28

000
ASUS45 KSLC 300310
RWRUT

UTAH REGIONAL WEATHER ROUNDUP
NATIONAL WEATHER SERVICE SALT LAKE CITY UT
900 PM MDT MON MAY 29 2017

UTZ001>011-023>025-300400-

NORTHERN UTAH

CITY           SKY/WX    TMP DP  RH WIND       PRES   REMARKS
BRIGHAM CITY   CLEAR     75  35  23 CALM      30.05S
HILL AFB       CLEAR     72  39  30 N6        30.07R
LOGAN          CLEAR     70  48  45 CALM      30.06R
OGDEN          CLEAR     70  40  33 N6        30.04S
SALT LAKE CITY CLEAR     73  48  41 N8        30.02S
WENDOVER       CLEAR     73  33  23 NE3       30.04R
HEBER CITY     CLEAR     63  36  36 CALM      30.10R
WEST JORDAN    CLEAR     69  47  44 W8        30.06R

$$

UTZ011>015-024>027-300400-

CENTRAL/NORTHEAST UTAH

CITY           SKY/WX    TMP DP  RH WIND       PRES   REMARKS
PROVO AIRPORT  CLEAR     69  51  52 W8        30.05R
MOAB/CANYONLAN CLEAR     74   7   7 NW3       30.00R
DELTA          CLEAR     73  14  10 CALM      30.04S
PRICE          PTCLDY    70  29  21 N13       30.11R
ROOSEVELT      CLEAR     68  34  28 N5        30.12R
VERNAL         CLEAR     67  34  29 N5        30.10S

$$

UTZ013>016-019>022-027-300400-

SOUTHERN UTAH

CITY           SKY/WX    TMP DP  RH WIND       PRES   REMARKS
BRYCE CANYON   PTCLDY    51  35  54 CALM      30.21S
CEDAR CITY     CLEAR     67  24  19 N5        30.06R
MILFORD        CLEAR     69  24  18 N7        30.04R
ST GEORGE      CLEAR     89  23   9 N3        29.84R
HANKSVILLE     CLEAR     75  18  11 NE7       30.01R
BLANDING       CLEAR     65  23  20 N9        30.16R

$$

REGIONAL REPORTS     COLORADO/ARIZONA

CITY           SKY/WX    TMP DP  RH WIND       PRES   REMARKS
CRAIG, CO      CLEAR     52  40  63 MISG      30.20R
GRAND JUNCTION CLEAR     71  24  17 NE8       30.03S
RIFLE, CO      CLEAR     67  25  20 NW6       30.12R
MONTROSE, CO   CLEAR     67  27  22 W3        30.11R
CORTEZ, CO     CLEAR     58  37  45 SE5       30.10R
COLORADO CITY    N/A     81  25  12 N7        30.02R
PAGE, AZ       CLEAR     81  17   9 E5        29.96R
GRAND CANYON   PTCLDY    55  29  36 CALM      30.15R
KINGMAN, AZ    PTCLDY    80  22  11 S10       29.89R
FLAGSTAFF, AZ  PTCLDY    61  26  26 CALM      30.16R

$$

REGIONAL REPORTS    NEVADA/IDAHO/WYOMING

CITY           SKY/WX    TMP DP  RH WIND       PRES   REMARKS
LAS VEGAS, NV  MOCLDY    95  12   5 CALM      29.77R
ELY, NY        PTCLDY    68  25  19 SW7       30.11R
ELKO, NV       CLEAR     75  26  16 N6        30.04R
POCATELLO, ID  CLEAR     69  41  36 CALM      30.09R
BURLEY, ID     CLEAR     71  38  29 E5        30.03S
FORT BRIDGER,  CLEAR     59  27  29 E7        30.25R
EVANSTON, WY   CLEAR     60  33  36 N8        30.22R
ROCK SPRINGS,  CLEAR     55  34  45 E12       30.22R
KEMMERER, WY     N/A     55  34  44 N9        30.25S

$$




USA.gov is the U.S. government's official web portal to all federal, state and local government web resources and services.